Weather History for KCQF - November, 2012

Change the Weather History Date:

Wednesday, November 28, 2012

  Actual Average (KBFM) Record (KBFM)
Temperature  
Mean Temperature 52 °F -  
Max Temperature 64 °F 64 °F 80 °F (2005)
Min Temperature 37 °F 45 °F 26 °F (2013)
Degree Days  
Heating Degree Days 14    
Growing Degree Days 2 (Base 50)    
Moisture  
Dew Point 42 °F    
Average Humidity 75    
Maximum Humidity 94    
Minimum Humidity 30    
Precipitation  
Precipitation 0.00 in - - ()
Sea Level Pressure  
Sea Level Pressure 30.34 in    
Wind  
Wind Speed 6 mph (North)    
Max Wind Speed 13 mph    
Max Gust Speed 16 mph    
Visibility 10 miles    
Events      
Averages and records for this station are not official NWS values.
T = Trace of Precipitation, MM = Missing Value Source: NWS Daily Summary

Daily Weather History Graph

Daily Weather History Graph

Search for Another Location

Airport or City:

Trip Planner

Search our weather history database for the weather conditions in past years. The results will help you decide how hot, cold, wet, or windy it might be!

Date:

Astronomy

Nov. 28, 2012 Rise Set
Actual Time 6:28 AM CST 4:50 PM CST
Civil Twilight 6:02 AM CST 5:16 PM CST
Nautical Twilight 5:33 AM CST 5:46 PM CST
Astronomical Twilight 5:04 AM CST 6:15 PM CST
Moon 5:05 PM CST (11/28) 6:25 AM CST (11/28)
Length of Visible Light 11h 13m
Length of Day
10h 21m
Full, 100% of the Moon is Illuminated
Nov 28
Full
Dec 6
Last Quarter
Dec 13
New
Dec 19
First Quarter
Dec 28
Full

Hourly Weather History & Observations

Time (CST) Temp. Windchill Dew Point Humidity Pressure Visibility Wind Dir Wind Speed Gust Speed Precip Events Conditions
12:15 AM 51.8 °F - 50.0 °F 94% 30.28 in 10.0 mi North 5.8 mph - N/A   Overcast
12:35 AM 51.8 °F - 50.0 °F 94% 30.28 in 7.0 mi NNW 5.8 mph - N/A   Overcast
12:55 AM 51.8 °F - 50.0 °F 94% 30.28 in 10.0 mi NNW 6.9 mph - N/A   Overcast
1:15 AM 51.8 °F - 50.0 °F 94% 30.28 in 10.0 mi North 5.8 mph - N/A   Overcast
1:35 AM 51.8 °F - 50.0 °F 94% 30.29 in 10.0 mi North 4.6 mph - N/A   Overcast
1:55 AM 51.8 °F - 50.0 °F 94% 30.29 in 7.0 mi NNW 5.8 mph - N/A   Overcast
2:15 AM 51.8 °F - 50.0 °F 94% 30.29 in 7.0 mi North 6.9 mph - N/A   Overcast
2:55 AM 51.8 °F - 50.0 °F 94% 30.29 in 10.0 mi North 4.6 mph - N/A   Overcast
3:15 AM 51.8 °F - 50.0 °F 94% 30.30 in 10.0 mi NNW 6.9 mph - N/A   Overcast
3:35 AM 51.8 °F - 50.0 °F 94% 30.30 in 10.0 mi NNW 5.8 mph - N/A   Overcast
3:55 AM 50.0 °F - 48.2 °F 94% 30.31 in 10.0 mi North 8.1 mph - N/A   Overcast
4:15 AM 50.0 °F - 48.2 °F 94% 30.30 in 10.0 mi North 8.1 mph - N/A   Overcast
4:35 AM 50.0 °F - 48.2 °F 94% 30.31 in 10.0 mi North 5.8 mph - N/A   Overcast
4:55 AM 50.0 °F - 46.4 °F 87% 30.31 in 10.0 mi North 10.4 mph 16.1 mph N/A   Overcast
5:15 AM 50.0 °F - 46.4 °F 87% 30.33 in 10.0 mi North 6.9 mph - N/A   Overcast
5:35 AM 50.0 °F - 46.4 °F 87% 30.33 in 10.0 mi NNW 8.1 mph - N/A   Overcast
5:55 AM 50.0 °F - 46.4 °F 87% 30.34 in 10.0 mi North 6.9 mph - N/A   Overcast
6:15 AM 48.2 °F - 46.4 °F 93% 30.34 in 10.0 mi NNE 10.4 mph - N/A   Overcast
6:35 AM 48.2 °F - 46.4 °F 93% 30.36 in 10.0 mi NNE 8.1 mph - N/A   Overcast
6:55 AM 48.2 °F - 44.6 °F 87% 30.36 in 10.0 mi North 10.4 mph - N/A   Overcast
7:15 AM 46.4 °F 41.9 °F 44.6 °F 93% 30.37 in 10.0 mi North 9.2 mph - N/A   Overcast
7:35 AM 46.4 °F 42.4 °F 44.6 °F 93% 30.38 in 10.0 mi NNW 8.1 mph - N/A   Overcast
7:55 AM 46.4 °F 41.5 °F 44.6 °F 93% 30.39 in 10.0 mi North 10.4 mph - N/A   Overcast
8:15 AM 46.4 °F 43.5 °F 44.6 °F 93% 30.39 in 10.0 mi NNW 5.8 mph - N/A   Overcast
8:35 AM 46.4 °F 43.5 °F 44.6 °F 93% 30.40 in 10.0 mi North 5.8 mph - N/A   Overcast
8:55 AM 46.4 °F 42.4 °F 42.8 °F 87% 30.41 in 7.0 mi NNW 8.1 mph - N/A   Overcast
9:15 AM 48.2 °F - 42.8 °F 82% 30.41 in 10.0 mi NNW 9.2 mph - N/A   Overcast
9:35 AM 48.2 °F - 42.8 °F 82% 30.41 in 10.0 mi NNW 8.1 mph - N/A   Overcast
9:55 AM 50.0 °F - 42.8 °F 76% 30.41 in 10.0 mi NNW 12.7 mph - N/A   Overcast
10:15 AM 51.8 °F - 42.8 °F 71% 30.40 in 10.0 mi North 8.1 mph - N/A   Scattered Clouds
10:35 AM 51.8 °F - 42.8 °F 71% 30.40 in 10.0 mi NNW 5.8 mph - N/A   Clear
10:55 AM 53.6 °F - 42.8 °F 67% 30.40 in 10.0 mi North 9.2 mph - N/A   Clear
11:15 AM 53.6 °F - 41.0 °F 62% 30.39 in 10.0 mi North 9.2 mph - N/A   Clear
11:35 AM 57.2 °F - 41.0 °F 55% 30.37 in 10.0 mi North 9.2 mph - N/A   Clear
11:55 AM 59.0 °F - 41.0 °F 51% 30.37 in 10.0 mi NW 6.9 mph - N/A   Clear
12:15 PM 59.0 °F - 42.8 °F 55% 30.35 in 10.0 mi North 5.8 mph - N/A   Clear
12:35 PM 60.8 °F - 39.2 °F 45% 30.35 in 10.0 mi NNW 4.6 mph - N/A   Clear
12:55 PM 60.8 °F - 41.0 °F 48% 30.33 in 10.0 mi NW 9.2 mph 16.1 mph N/A   Clear
1:15 PM 62.6 °F - 41.0 °F 45% 30.33 in 10.0 mi NNW 9.2 mph - N/A   Clear
1:35 PM 62.6 °F - 33.8 °F 34% 30.31 in 10.0 mi North 6.9 mph - N/A   Clear
1:55 PM 62.6 °F - 32.0 °F 32% 30.30 in 10.0 mi North 11.5 mph - N/A   Clear
2:15 PM 64.4 °F - 33.8 °F 32% 30.30 in 10.0 mi NNE 10.4 mph - N/A   Clear
2:35 PM 64.4 °F - 32.0 °F 30% 30.30 in 10.0 mi North 10.4 mph 16.1 mph N/A   Clear
2:55 PM 62.6 °F - 35.6 °F 37% 30.30 in 10.0 mi North 6.9 mph - N/A   Clear
3:15 PM 62.6 °F - 33.8 °F 34% 30.30 in 10.0 mi NNW 6.9 mph - N/A   Clear
3:35 PM 62.6 °F - 33.8 °F 34% 30.30 in 10.0 mi North 9.2 mph - N/A   Clear
3:55 PM 62.6 °F - 33.8 °F 34% 30.30 in 10.0 mi North 6.9 mph - N/A   Clear
4:35 PM 59.0 °F - 35.6 °F 42% 30.32 in 10.0 mi North 3.5 mph - N/A   Clear
4:55 PM 53.6 °F - 39.2 °F 58% 30.31 in 10.0 mi Calm Calm - N/A   Clear
5:15 PM 48.2 °F - 41.0 °F 76% 30.32 in 10.0 mi Calm Calm - N/A   Clear
5:55 PM 44.6 °F - 41.0 °F 87% 30.33 in 10.0 mi Calm Calm - N/A   Clear
6:15 PM 42.8 °F - 41.0 °F 93% 30.34 in 10.0 mi Calm Calm - N/A   Clear
6:35 PM 42.8 °F - 41.0 °F 93% 30.34 in 10.0 mi Calm Calm - N/A   Clear
6:55 PM 42.8 °F - 41.0 °F 93% 30.35 in 10.0 mi Calm Calm - N/A   Clear
7:15 PM 39.2 °F - 37.4 °F 93% 30.36 in 7.0 mi Calm Calm - N/A   Clear
7:55 PM 46.4 °F 42.9 °F 37.4 °F 71% 30.36 in 10.0 mi North 6.9 mph - N/A   Clear
8:15 PM 46.4 °F 43.5 °F 37.4 °F 71% 30.36 in 10.0 mi North 5.8 mph - N/A   Clear
8:35 PM 46.4 °F 43.5 °F 37.4 °F 71% 30.36 in 10.0 mi North 5.8 mph - N/A   Clear
8:55 PM 46.4 °F 44.3 °F 37.4 °F 71% 30.36 in 10.0 mi NNE 4.6 mph - N/A   Clear
9:15 PM 46.4 °F 43.5 °F 35.6 °F 66% 30.36 in 10.0 mi North 5.8 mph - N/A   Clear
9:35 PM 44.6 °F 42.2 °F 37.4 °F 76% 30.36 in 10.0 mi NNE 4.6 mph - N/A   Clear
9:55 PM 44.6 °F - 37.4 °F 76% 30.36 in 10.0 mi Calm Calm - N/A   Clear
10:15 PM 44.6 °F - 35.6 °F 71% 30.35 in 10.0 mi Calm Calm - N/A   Clear
10:35 PM 44.6 °F 43.1 °F 35.6 °F 71% 30.35 in 10.0 mi North 3.5 mph - N/A   Clear
10:55 PM 42.8 °F - 35.6 °F 76% 30.35 in 10.0 mi Calm Calm - N/A   Clear
11:15 PM 41.0 °F - 35.6 °F 81% 30.35 in 10.0 mi Calm Calm - N/A   Clear
11:35 PM 39.2 °F - 35.6 °F 87% 30.34 in 10.0 mi Calm Calm - N/A   Clear
11:55 PM 37.4 °F 34.9 °F 35.6 °F 93% 30.34 in 10.0 mi NNE 3.5 mph - N/A   Clear